Location: Lake Arresoe
(56.0000°N, 12.5000°E)
Time: 11:22:28
(UTC+02:00)

Cosmos 1674 - Pass Details

Date: 16 August 2020
Orbit: 495 x 517 km, 82.5° (Epoch: 23 September)

Event Time Altitude Azimuth Distance (km) Brightness Sun altitude
Rises 02:26:19 0° 340° (NNW) 2,603 7.1 -18.7°
Reaches altitude 10° 02:28:39 10° 328° (NNW) 1,717 5.8 -18.6°
Maximum altitude 02:31:50 27° 270° (W) 1,006 3.9 -18.5°
Enters shadow 02:32:04 26° 263° (W) 1,011 3.9 -18.5°
